Tracking 29932 objects as of 3-Dec-2024
HD Live streaming from Space Station
objects crossing your sky now

IRIDIUM 33 DEB

Track IRIDIUM 33 DEB now!
10-day predictions


NORAD ID: 34106
Int'l Code: 1997-051DR
Perigee: 580.6 km
Apogee: 585.6 km
Inclination: 86.3 °
Period: 96.2 minutes
Semi major axis: 6954 km
RCS: 0.065 m2 (small)
Launch date: September 14, 1997
Source: United States (US)
Launch site: TYURATAM MISSILE AND SPACE COMPLEX (TTMTR)

Note: This is SATELLITE DEBRIS
Your satellite tracking list
Your tracking list is empty




NASA's NSSDC Master Catalog

Two Line Element Set (TLE):
1 34106U 97051DR  24338.51098914  .00105730  00000-0  90494-2 0  9997
2 34106  86.3363 147.5447 0003610  99.4110 318.0250 14.97057629835837
Source of the keplerian elements: AFSPC